星链-36595(STARLINK-36595)

导读

STARLINK-36595是美国发射的Starlink系列卫星之一,于2026年1月30日发射升空,属于SpaceX公司星链星座组网卫星,主要用于为全球提供高速低延迟互联网卫星服务,尤其服务偏远地区及网络基础设施薄弱区域,进一步扩充星链星座在轨规模,增强全球覆盖能力与网络服务稳定性。

基本信息
目录编号:
67639
目录名称:
STARLINK-36595
国际标识:
2026-020Y
轨道中心:
EARTH
卫星名称:
星链-36595
卫星全名:
星链-36595(STARLINK-36595)
卫星状态:
在轨 (已飞行226 天)
发射日期:
2026-01-30 UTC
国别 :
美国 (US)
星等 :
--
该卫星已列入 空间交会检测服务 Space Conjunction Data Service (SCDS) ,当前飞行风险评估等级: 高风险
轨道信息
数据来源 国际轨道数据 AOE轨道数据
星历时间 2026-09-13T02:18:24+0800
15小时前
查看轨道信息
2026-09-06T23:00:00+0800
6天前
查看轨道信息
半长轴 6861.175km 6861.234km
偏心率 0.0001077 0.000118
轨道倾角 42.999° 42.999°
近地点辐角 260.901° 254.836°
升交点赤经 163.307° 197.972°
平近点角 99.172° 152.287°
近地点 482.299km 482.287km
远地点 483.777km 483.907km
周期 94.267分钟 94.268分钟
每日圈数 15.27584 15.275643
详细信息
固有亮度:
5
最大亮度:
2.5
卫星平台:
Starlink V1.0
覆盖范围:
全球
运营商:
太空探索技术公司
运营商所在国:
美国
制造商(研发单位):
太空探索技术公司
制造商所在国:
美国
使用方式:
暂无
卫星简介
Starlink 计划是 SpaceX 推出的全球卫星互联网项目,通过发射低轨道卫星,为全球尤其是偏远地区提供高速、低延迟的互联网服务。自 2019 年起,Starlink 已部署数千颗卫星,旨在缩小全球数字鸿沟,推动互联网普及。该项目还为军事、航空等行业提供通信支持,带来广泛经济效益。
2D轨道图
3D轨道图
轨道高度分析图
轨道倾角分析图
轨道综合分析图
查看轨道综合分析图
交会数据列表
事件ID 空间交会对象 最接近时刻(TCA) 交会距离 交会风险概率(CRP) 交会风险指数(CRI) 操作
CDM_260915-035205-808606-763921
2026-09-15T
03:52:40+0000
0.274 km
中距离
3.665193E-4 高风险 0.86
CDM_260915-131505-848606-763921
2026-09-15T
13:15:35+0000
0.639 km
远距离
6.4207E-5 中风险 0.71
CDM_260911-002905-782506-763921
2026-09-11T
00:29:34+0000
0.707 km
远距离
5.317759E-5 中风险 0.7
CDM_260914-193005-782506-763921
2026-09-14T
19:30:38+0000
0.731 km
远距离
4.795935E-5 中风险 0.69
CDM_260915-105605-808606-763921
2026-09-15T
10:56:21+0000
0.824 km
远距离
2.475864E-5 中风险 0.63
CDM_260915-054205-782506-763922
2026-09-15T
05:42:38+0000
0.996 km
远距离
1.721338E-5 中风险 0.6
CDM_260910-040606-187106-763924
OBJECT C (61871)
2026-09-10T
04:06:09+0000
1.179 km
极远距离
1.458288E-5 中风险 0.58
CDM_260915-034705-845406-763921
2026-09-15T
03:47:57+0000
1.143 km
极远距离
1.093548E-5 中风险 0.56
CDM_260915-021305-845406-763921
2026-09-15T
02:13:48+0000
1.155 km
极远距离
1.05357E-5 中风险 0.55
CDM_260914-231405-989706-763921
2026-09-14T
23:14:41+0000
0.877 km
远距离
8.605707E-6 低风险 0.54
与全量物体交会距离演化趋势
与全量物体交会风险概率演化趋势